{"data":{"norad_id":61532,"intl_designator":"2024-184A","name":"STARLINK-11354 [DTC]","alt_names":[],"object_type":"PAYLOAD","status":"ACTIVE","operator":null,"country":"US","launch_date":"2024-10-15","launch_site_code":"AFWTR","launch_vehicle":null,"mission":null,"orbit_class":"UNKNOWN","rcs_meters":null,"size_class":null,"mass_kg":null,"dimensions":null,"purposes":["comms"],"wikipedia_slug":null,"has_3d_model":false,"image_url":null,"decayed_at":null,"tle_current":{"epoch":"2026-09-21T12:29:40.056864Z","epoch_age_seconds":103948,"freshness":"FRESH","line1":"1 61532U 24184A   26264.52060251 -.00000147  00000+0  36468-5 0  9991","line2":"2 61532  53.1584 350.9727 0000877  61.8252 298.2855 15.69699442111179","mean_motion":15.69699442,"eccentricity":8.77e-5,"inclination_deg":53.1584,"raan_deg":350.9727,"arg_perigee_deg":61.8252,"mean_anomaly_deg":298.2855,"bstar":3.6468e-6,"rev_number":11117,"period_min":91.737307249422,"perigee_km":359.16605024314,"apogee_km":360.34787684434,"semimajor_km":6737.8939635437,"source":"CELESTRAK","updated_at":"2026-09-22T09:00:49.363369Z"}}}